| time (UTC) | temp C | wind direction | speed KPH | gust KPH | rain 1hr cm | rain 24hr cm | rain mn cm | humidity % | barometer mb |
| 20260902034525 | 13 | 222 | 1.6 | 4.8 | 0.00 | 0.00 | 0.00 | 68 | 1019.9 |
| 20260902033034 | 13 | 257 | 0.0 | 3.2 | 0.00 | 0.00 | 0.00 | 68 | 1019.8 |
| 20260902031522 | 13 | 233 | 1.6 | 4.8 | 0.00 | 0.00 | 0.00 | 67 | 1019.9 |
| 20260902030021 | 13 | 214 | 0.0 | 4.8 | 0.00 | 0.00 | 0.00 | 67 | 1019.8 |
| 20260902024519 | 13 | 187 | 0.0 | 4.8 | 0.00 | 0.00 | 0.00 | 67 | 1020.0 |
| 20260902023020 | 13 | 224 | 0.0 | 6.4 | 0.00 | 0.00 | 0.00 | 66 | 1020.3 |
| 20260902021518 | 13 | 226 | 0.0 | 6.4 | 0.00 | 0.00 | 0.00 | 66 | 1020.4 |
| 20260902020019 | 13 | 217 | 1.6 | 6.4 | 0.00 | 0.00 | 0.00 | 65 | 1020.4 |
| 20260902014527 | 13 | 223 | 1.6 | 8.0 | 0.00 | 0.00 | 0.00 | 65 | 1020.3 |
| 20260902013014 | 13 | 242 | 0.0 | 3.2 | 0.00 | 0.00 | 0.00 | 64 | 1020.4 |
| 20260902011521 | 13 | 253 | 0.0 | 6.4 | 0.00 | 0.00 | 0.00 | 64 | 1020.3 |
| 20260902010010 | 13 | 236 | 0.0 | 6.4 | 0.00 | 0.00 | 0.00 | 64 | 1020.3 |
| 20260902004509 | 13 | 217 | 0.0 | 4.8 | 0.00 | 0.15 | 0.00 | 63 | 1020.4 |
| 20260902003010 | 13 | 240 | 1.6 | 4.8 | 0.00 | 0.15 | 0.00 | 63 | 1020.4 |
| 20260902001506 | 13 | 235 | 0.0 | 6.4 | 0.00 | 0.15 | 0.00 | 63 | 1020.5 |
| 20260902000006 | 13 | 225 | 1.6 | 6.4 | 0.00 | 0.15 | 0.00 | 63 | 1020.6 |
| 20260901234513 | 13 | 214 | 1.6 | 4.8 | 0.00 | 0.15 | 0.00 | 62 | 1020.6 |
| 20260901233003 | 13 | 232 | 1.6 | 6.4 | 0.00 | 0.15 | 0.00 | 62 | 1020.7 |
| 20260901231501 | 13 | 218 | 0.0 | 4.8 | 0.00 | 0.15 | 0.00 | 62 | 1020.8 |
| 20260901230002 | 13 | 207 | 0.0 | 3.2 | 0.00 | 0.15 | 0.00 | 62 | 1021.0 |
| 20260901224600 | 13 | 201 | 0.0 | 3.2 | 0.00 | 0.15 | 0.00 | 62 | 1021.0 |
| 20260901223113 | 13 | 220 | 1.6 | 4.8 | 0.00 | 0.15 | 0.00 | 62 | 1020.9 |
| 20260901221558 | 13 | 169 | 0.0 | 3.2 | 0.00 | 0.15 | 0.00 | 62 | 1020.9 |
| 20260901220101 | 14 | 200 | 0.0 | 3.2 | 0.00 | 0.15 | 0.00 | 61 | 1021.0 |
| 20260901214553 | 14 | 228 | 1.6 | 6.4 | 0.00 | 0.15 | 0.15 | 61 | 1021.2 |
| 20260901213053 | 14 | 243 | 1.6 | 4.8 | 0.00 | 0.15 | 0.15 | 61 | 1021.1 |
| 20260901211555 | 15 | 226 | 0.0 | 4.8 | 0.00 | 0.15 | 0.15 | 60 | 1021.0 |
| 20260901210058 | 15 | 238 | 0.0 | 6.4 | 0.00 | 0.15 | 0.15 | 59 | 1021.0 |
| 20260901204549 | 15 | 221 | 1.6 | 4.8 | 0.00 | 0.15 | 0.15 | 59 | 1021.0 |
| 20260901203051 | 15 | 219 | 0.0 | 4.8 | 0.00 | 0.15 | 0.15 | 59 | 1021.1 |
| 20260901201546 | 15 | 243 | 0.0 | 4.8 | 0.00 | 0.15 | 0.15 | 59 | 1021.4 |
| 20260901200054 | 15 | 240 | 0.0 | 3.2 | 0.00 | 0.15 | 0.15 | 60 | 1021.4 |
| 20260901194600 | 16 | 212 | 0.0 | 3.2 | 0.00 | 0.15 | 0.15 | 58 | 1021.3 |
| 20260901193040 | 16 | 229 | 0.0 | 3.2 | 0.00 | 0.15 | 0.15 | 58 | 1021.3 |
| 20260901191543 | 16 | 221 | 0.0 | 4.8 | 0.00 | 0.15 | 0.15 | 57 | 1021.2 |
| 20260901190054 | 17 | 247 | 0.0 | 4.8 | 0.00 | 0.15 | 0.15 | 56 | 1021.1 |
| 20260901184539 | 17 | 243 | 1.6 | 4.8 | 0.00 | 0.15 | 0.15 | 55 | 1020.9 |
| 20260901183043 | 17 | 236 | 0.0 | 4.8 | 0.00 | 0.15 | 0.15 | 54 | 1020.9 |
| 20260901181546 | 18 | 208 | 0.0 | 8.0 | 0.00 | 0.15 | 0.15 | 52 | 1020.9 |
| 20260901180037 | 18 | 250 | 1.6 | 11.3 | 0.00 | 0.15 | 0.15 | 51 | 1020.9 |
| 20260901174518 | 18 | 249 | 1.6 | 8.0 | 0.00 | 0.15 | 0.15 | 50 | 1020.9 |
| 20260901173017 | 19 | 266 | 4.8 | 12.9 | 0.00 | 0.15 | 0.15 | 50 | 1021.0 |
| 20260901171517 | 20 | 269 | 3.2 | 9.7 | 0.00 | 0.15 | 0.15 | 50 | 1021.1 |
| 20260901170016 | 20 | 268 | 3.2 | 14.5 | 0.00 | 0.15 | 0.15 | 50 | 1021.2 |
| 20260901164515 | 20 | 264 | 3.2 | 16.1 | 0.00 | 0.15 | 0.15 | 49 | 1021.1 |
| 20260901163014 | 20 | 271 | 4.8 | 14.5 | 0.00 | 0.15 | 0.15 | 47 | 1021.2 |
| 20260901161512 | 20 | 292 | 1.6 | 11.3 | 0.00 | 0.15 | 0.15 | 51 | 1021.3 |
| 20260901160011 | 20 | 323 | 3.2 | 8.0 | 0.00 | 0.15 | 0.15 | 52 | 1021.2 |
| 20260901154511 | 20 | 283 | 3.2 | 8.0 | 0.00 | 0.15 | 0.15 | 52 | 1021.2 |
| 20260901153018 | 20 | 296 | 1.6 | 12.9 | 0.00 | 0.15 | 0.15 | 53 | 1021.2 |
| 20260901151508 | 20 | 243 | 1.6 | 14.5 | 0.00 | 0.15 | 0.15 | 53 | 1021.1 |
| 20260901150007 | 20 | 307 | 6.4 | 19.3 | 0.00 | 0.15 | 0.15 | 53 | 1021.1 |
| 20260901144508 | 20 | 307 | 3.2 | 12.9 | 0.00 | 0.15 | 0.15 | 53 | 1021.0 |
| 20260901143006 | 20 | 244 | 3.2 | 12.9 | 0.00 | 0.15 | 0.15 | 53 | 1021.2 |
| 20260901141507 | 20 | 262 | 4.8 | 14.5 | 0.00 | 0.15 | 0.15 | 53 | 1021.3 |
| 20260901140005 | 20 | 282 | 1.6 | 9.7 | 0.00 | 0.15 | 0.15 | 53 | 1021.3 |
| 20260901134503 | 20 | 321 | 3.2 | 11.3 | 0.00 | 0.15 | 0.15 | 53 | 1021.3 |
| 20260901133006 | 20 | 246 | 3.2 | 11.3 | 0.00 | 0.15 | 0.15 | 53 | 1021.2 |
| 20260901131506 | 20 | 303 | 3.2 | 17.7 | 0.00 | 0.15 | 0.15 | 53 | 1021.3 |
| 20260901130002 | 20 | 227 | 4.8 | 12.9 | 0.00 | 0.15 | 0.15 | 53 | 1021.4 |
| 20260901124602 | 20 | 256 | 3.2 | 14.5 | 0.00 | 0.15 | 0.15 | 53 | 1021.4 |
| 20260901123100 | 20 | 205 | 3.2 | 12.9 | 0.00 | 0.15 | 0.15 | 53 | 1021.4 |
| 20260901121611 | 20 | 46 | 3.2 | 16.1 | 0.00 | 0.15 | 0.15 | 53 | 1021.4 |
| 20260901120106 | 20 | 268 | 4.8 | 12.9 | 0.00 | 0.15 | 0.15 | 53 | 1021.4 |
| 20260901114602 | 20 | 352 | 1.6 | 11.3 | 0.00 | 0.15 | 0.15 | 53 | 1021.4 |
| 20260901113056 | 20 | 336 | 3.2 | 12.9 | 0.00 | 0.15 | 0.15 | 53 | 1021.5 |
| 20260901111559 | 20 | 272 | 3.2 | 11.3 | 0.00 | 0.15 | 0.15 | 53 | 1021.5 |
| 20260901110053 | 19 | 260 | 3.2 | 11.3 | 0.00 | 0.15 | 0.15 | 54 | 1021.5 |
| 20260901104552 | 20 | 293 | 4.8 | 14.5 | 0.00 | 0.15 | 0.15 | 53 | 1021.5 |
| 20260901103101 | 20 | 274 | 3.2 | 11.3 | 0.00 | 0.15 | 0.15 | 53 | 1021.4 |
| 20260901101553 | 19 | 360 | 4.8 | 11.3 | 0.00 | 0.15 | 0.15 | 53 | 1021.3 |
| 20260901100049 | 19 | 20 | 3.2 | 9.7 | 0.00 | 0.15 | 0.15 | 54 | 1021.4 |
| 20260901094547 | 19 | 252 | 1.6 | 9.7 | 0.00 | 0.20 | 0.15 | 55 | 1021.3 |
| 20260901093114 | 19 | 4 | 1.6 | 11.3 | 0.00 | 0.20 | 0.15 | 54 | 1021.2 |
| 20260901091559 | 18 | 328 | 3.2 | 9.7 | 0.00 | 0.20 | 0.15 | 56 | 1021.1 |
| 20260901090044 | 19 | 297 | 4.8 | 11.3 | 0.00 | 0.20 | 0.15 | 55 | 1021.1 |
| 20260901084543 | 19 | 3 | 4.8 | 11.3 | 0.00 | 0.20 | 0.15 | 54 | 1020.9 |
| 20260901083046 | 19 | 210 | 1.6 | 9.7 | 0.00 | 0.20 | 0.15 | 54 | 1020.8 |
| 20260901081538 | 18 | 242 | 1.6 | 11.3 | 0.00 | 0.20 | 0.15 | 55 | 1020.6 |
| 20260901080043 | 18 | 293 | 1.6 | 9.7 | 0.00 | 0.20 | 0.15 | 56 | 1020.4 |
| 20260901074535 | 18 | 295 | 1.6 | 6.4 | 0.00 | 0.20 | 0.15 | 56 | 1020.3 |
| 20260901073032 | 18 | 343 | 0.0 | 8.0 | 0.00 | 0.20 | 0.15 | 58 | 1020.1 |
| 20260901071532 | 18 | 23 | 1.6 | 11.3 | 0.00 | 0.20 | 0.15 | 59 | 1019.9 |
| 20260901070033 | 17 | 319 | 0.0 | 9.7 | 0.00 | 0.20 | 0.15 | 59 | 1019.9 |
| 20260901064530 | 17 | 259 | 0.0 | 4.8 | 0.00 | 0.20 | 0.15 | 60 | 1019.9 |
| 20260901063023 | 17 | 349 | 3.2 | 8.0 | 0.00 | 0.20 | 0.15 | 60 | 1019.8 |
| 20260901061523 | 17 | 302 | 1.6 | 6.4 | 0.00 | 0.20 | 0.15 | 61 | 1019.6 |
| 20260901060021 | 17 | 306 | 1.6 | 8.0 | 0.00 | 0.20 | 0.15 | 60 | 1019.4 |
| 20260901054520 | 17 | 309 | 0.0 | 4.8 | 0.00 | 0.53 | 0.15 | 60 | 1019.4 |
| 20260901053022 | 17 | 301 | 1.6 | 6.4 | 0.00 | 0.53 | 0.15 | 60 | 1019.3 |
| 20260901051517 | 17 | 305 | 1.6 | 6.4 | 0.00 | 0.53 | 0.15 | 60 | 1019.1 |
| 20260901050016 | 17 | 304 | 1.6 | 6.4 | 0.00 | 0.53 | 0.15 | 60 | 1019.0 |
| 20260901044514 | 17 | 323 | 0.0 | 4.8 | 0.00 | 0.79 | 0.15 | 61 | 1018.9 |
| 20260901043013 | 17 | 356 | 1.6 | 8.0 | 0.00 | 0.79 | 0.15 | 60 | 1018.8 |
| 20260901041512 | 17 | 325 | 0.0 | 6.4 | 0.00 | 0.79 | 0.15 | 60 | 1018.7 |
| 20260901040011 | 17 | 307 | 3.2 | 9.7 | 0.00 | 0.79 | 0.15 | 60 | 1018.6 |